Weather History for Paynesville, MN

Change the Weather History Date:

Monday, September 23, 2013

  Actual Average (KLJF) Record (KLJF)
Temperature  
Mean Temperature 64 °F -  
Max Temperature 73 °F 65 °F 86 °F (2007)
Min Temperature 55 °F 41 °F 28 °F (1976)
Degree Days  
Heating Degree Days 1    
Growing Degree Days 14 (Base 50)    
Moisture  
Dew Point 50 °F    
Average Humidity 62    
Maximum Humidity 81    
Minimum Humidity 40    
Precipitation  
Precipitation 0.00 in - - ()
Sea Level Pressure  
Sea Level Pressure 29.86 in    
Wind  
Wind Speed 13 mph (SE)    
Max Wind Speed 18 mph    
Max Gust Speed 29 mph    
Visibility 10 miles    
Events      
Averages and records for this station are not official NWS values.
T = Trace of Precipitation, MM = Missing Value Source: NWS Daily Summary

Daily Weather History Graph

Daily Weather History Graph

Search for Another Location

Airport:

Trip Planner

Search our weather history database for the weather conditions in past years. The results will help you decide how hot, cold, wet, or windy it might be!

Date:

Astronomy

Sep. 23, 2013 Rise Set
Actual Time 7:07 AM CDT 7:14 PM CDT
Civil Twilight 6:38 AM CDT 7:43 PM CDT
Nautical Twilight 6:03 AM CDT 8:17 PM CDT
Astronomical Twilight 5:27 AM CDT 8:53 PM CDT
Moon 9:33 PM CDT (9/23) 11:40 AM CDT (9/23)
Length of Visible Light 13h 05m
Length of Day
12h 06m
Waning Gibbous, 81% of the Moon is Illuminated
Sep 23
Waning Gibbous
Sep 26
Last Quarter
Oct 4
New
Oct 11
First Quarter
Oct 18
Full

Hourly Weather History & Observations

Time (CDT) Temp. Dew Point Humidity Pressure Visibility Wind Dir Wind Speed Gust Speed Precip Events Conditions
12:13 AM 63.1 °F 52.9 °F 69% 29.83 in 7.0 mi SSE 13.8 mph 21.9 mph N/A   Clear
12:33 AM 62.6 °F 52.7 °F 70% 29.84 in 7.0 mi SSE 13.8 mph 19.6 mph N/A   Clear
12:53 AM 62.6 °F 52.7 °F 70% 29.84 in 10.0 mi SSE 12.7 mph 18.4 mph N/A   Clear
1:13 AM 62.6 °F 52.2 °F 69% 29.84 in 7.0 mi SSE 11.5 mph 18.4 mph N/A   Clear
1:32 AM 62.1 °F 52.2 °F 70% 29.85 in 10.0 mi SSE 13.8 mph 20.7 mph N/A   Clear
1:53 AM 61.7 °F 52.0 °F 70% 29.85 in 10.0 mi SSE 11.5 mph 17.3 mph N/A   Clear
2:13 AM 61.3 °F 52.0 °F 71% 29.85 in 7.0 mi SSE 11.5 mph 17.3 mph N/A   Clear
2:33 AM 60.8 °F 52.0 °F 73% 29.85 in 7.0 mi SSE 9.2 mph 17.3 mph N/A   Clear
2:52 AM 60.4 °F 52.0 °F 74% 29.85 in 10.0 mi SSE 11.5 mph 16.1 mph N/A   Clear
3:13 AM 59.9 °F 51.8 °F 75% 29.84 in 7.0 mi SE 11.5 mph 17.3 mph N/A   Clear
3:33 AM 59.5 °F 51.8 °F 76% 29.84 in 10.0 mi SSE 12.7 mph 20.7 mph N/A   Clear
3:52 AM 59.2 °F 51.8 °F 77% 29.84 in 7.0 mi SSE 12.7 mph 20.7 mph N/A   Clear
4:12 AM 58.6 °F 51.4 °F 77% 29.84 in 10.0 mi SE 15.0 mph 19.6 mph N/A   Clear
4:33 AM 58.5 °F 51.1 °F 76% 29.84 in 10.0 mi SE 12.7 mph 19.6 mph N/A   Clear
4:52 AM 58.1 °F 50.5 °F 76% 29.84 in 10.0 mi SE 15.0 mph 18.4 mph N/A   Clear
5:13 AM 57.6 °F 50.4 °F 77% 29.85 in 10.0 mi SSE 11.5 mph 17.3 mph N/A   Clear
5:32 AM 57.2 °F 50.2 °F 77% 29.85 in 10.0 mi SE 12.7 mph - N/A   Clear
5:53 AM 56.7 °F 50.0 °F 78% 29.86 in 10.0 mi SE 11.5 mph 18.4 mph N/A   Clear
6:13 AM 56.3 °F 50.0 °F 79% 29.86 in 10.0 mi SE 12.7 mph 17.3 mph N/A   Clear
6:32 AM 55.8 °F 50.0 °F 81% 29.86 in 10.0 mi SE 11.5 mph - N/A   Clear
6:53 AM 55.6 °F 49.5 °F 80% 29.87 in 10.0 mi SE 11.5 mph 18.4 mph N/A   Clear
7:13 AM 55.4 °F 49.8 °F 81% 29.87 in 10.0 mi SE 11.5 mph - N/A   Clear
7:32 AM 55.4 °F 49.6 °F 81% 29.87 in 10.0 mi SE 9.2 mph - N/A   Clear
7:53 AM 55.8 °F 49.6 °F 80% 29.88 in 10.0 mi SE 10.4 mph 16.1 mph N/A   Clear
8:12 AM 55.8 °F 49.3 °F 79% 29.88 in 7.0 mi SE 12.7 mph 18.4 mph N/A   Clear
8:32 AM 56.1 °F 49.3 °F 78% 29.88 in 10.0 mi SE 12.7 mph 17.3 mph N/A   Clear
8:53 AM 57.4 °F 49.6 °F 75% 29.88 in 10.0 mi SE 11.5 mph 17.3 mph N/A   Clear
9:13 AM 59.4 °F 49.5 °F 70% 29.88 in 10.0 mi SSE 11.5 mph 20.7 mph N/A   Clear
9:33 AM 60.6 °F 50.0 °F 68% 29.88 in 10.0 mi SSE 13.8 mph 17.3 mph N/A   Clear
9:52 AM 61.9 °F 49.5 °F 64% 29.88 in 10.0 mi SSE 15.0 mph 21.9 mph N/A   Clear
10:13 AM 62.4 °F 49.8 °F 63% 29.88 in 7.0 mi SSE 16.1 mph 24.2 mph N/A   Clear
10:33 AM 64.0 °F 50.2 °F 61% 29.87 in 10.0 mi SSE 12.7 mph 21.9 mph N/A   Clear
10:53 AM 64.4 °F 50.2 °F 60% 29.87 in 10.0 mi SE 16.1 mph 25.3 mph N/A   Clear
11:13 AM 65.7 °F 50.7 °F 58% 29.87 in 10.0 mi SSE 17.3 mph 21.9 mph N/A   Clear
11:33 AM 66.2 °F 50.2 °F 56% 29.87 in 10.0 mi SSE 17.3 mph 25.3 mph N/A   Clear
11:53 AM 66.7 °F 50.0 °F 55% 29.86 in 10.0 mi SSE 15.0 mph 25.3 mph N/A   Clear
12:13 PM 68.4 °F 50.0 °F 52% 29.86 in 10.0 mi SSE 16.1 mph 28.8 mph N/A   Clear
12:32 PM 68.4 °F 50.2 °F 52% 29.86 in 10.0 mi SSE 13.8 mph 21.9 mph N/A   Clear
12:53 PM 70.5 °F 50.2 °F 48% 29.86 in 10.0 mi SE 18.4 mph 27.6 mph N/A   Clear
1:13 PM 70.2 °F 49.6 °F 48% 29.85 in 10.0 mi SSE 18.4 mph 25.3 mph N/A   Clear
1:33 PM 70.7 °F 49.8 °F 48% 29.85 in 10.0 mi SE 13.8 mph 23.0 mph N/A   Clear
1:52 PM 71.2 °F 50.4 °F 48% 29.84 in 10.0 mi SE 12.7 mph 19.6 mph N/A   Clear
2:13 PM 71.2 °F 49.8 °F 47% 29.84 in 7.0 mi SE 17.3 mph 24.2 mph N/A   Clear
2:32 PM 72.1 °F 49.5 °F 45% 29.84 in 7.0 mi SSE 15.0 mph 24.2 mph N/A   Clear
2:53 PM 73.0 °F 48.7 °F 42% 29.83 in 10.0 mi SE 11.5 mph 19.6 mph N/A   Clear
3:13 PM 72.9 °F 48.2 °F 42% 29.83 in 10.0 mi SE 17.3 mph 24.2 mph N/A   Clear
3:33 PM 73.4 °F 48.6 °F 41% 29.83 in 10.0 mi SE 15.0 mph - N/A   Clear
3:52 PM 73.4 °F 48.7 °F 42% 29.82 in 10.0 mi SE 16.1 mph 23.0 mph N/A   Clear
4:13 PM 73.4 °F 48.4 °F 41% 29.83 in 10.0 mi SE 18.4 mph 25.3 mph N/A   Clear
4:33 PM 72.7 °F 47.1 °F 40% 29.83 in 10.0 mi SE 13.8 mph 19.6 mph N/A   Clear
4:52 PM 72.9 °F 48.2 °F 42% 29.82 in 10.0 mi SE 11.5 mph 20.7 mph N/A   Clear
5:13 PM 72.9 °F 49.1 °F 43% 29.83 in 10.0 mi SE 13.8 mph 21.9 mph N/A   Clear
5:33 PM 72.5 °F 49.3 °F 44% 29.83 in 10.0 mi SE 15.0 mph 20.7 mph N/A   Clear
5:53 PM 72.1 °F 48.7 °F 43% 29.84 in 10.0 mi SE 15.0 mph 21.9 mph N/A   Clear
6:12 PM 71.6 °F 49.1 °F 45% 29.84 in 10.0 mi SE 13.8 mph 21.9 mph N/A   Clear
6:33 PM 70.7 °F 49.5 °F 47% 29.84 in 10.0 mi SE 10.4 mph 16.1 mph N/A   Clear
6:52 PM 69.3 °F 49.6 °F 50% 29.84 in 10.0 mi ESE 9.2 mph 17.3 mph N/A   Clear
7:13 PM 68.0 °F 49.6 °F 52% 29.84 in 10.0 mi ESE 6.9 mph - N/A   Clear
7:32 PM 66.9 °F 49.6 °F 54% 29.85 in 10.0 mi ESE 6.9 mph - N/A   Clear
7:52 PM 65.7 °F 50.2 °F 57% 29.86 in 10.0 mi ESE 8.1 mph - N/A   Clear
8:13 PM 64.9 °F 50.4 °F 59% 29.87 in 10.0 mi ESE 9.2 mph - N/A   Clear
8:33 PM 64.8 °F 50.2 °F 59% 29.87 in 10.0 mi SE 9.2 mph - N/A   Clear
8:53 PM 64.4 °F 50.0 °F 59% 29.87 in 10.0 mi ESE 9.2 mph - N/A   Clear
9:12 PM 64.2 °F 50.0 °F 60% 29.88 in 10.0 mi SE 10.4 mph - N/A   Clear
9:33 PM 63.9 °F 50.0 °F 61% 29.89 in 10.0 mi SE 8.1 mph - N/A   Clear
9:53 PM 63.5 °F 50.0 °F 61% 29.89 in 10.0 mi SE 11.5 mph - N/A   Clear
10:13 PM 63.0 °F 49.8 °F 62% 29.89 in 10.0 mi ESE 9.2 mph - N/A   Clear
10:33 PM 62.1 °F 49.8 °F 64% 29.89 in 10.0 mi ESE 8.1 mph - N/A   Clear
10:53 PM 61.7 °F 50.0 °F 65% 29.90 in 10.0 mi SE 9.2 mph - N/A   Clear
11:12 PM 61.3 °F 50.0 °F 66% 29.90 in 10.0 mi SE 8.1 mph - N/A   Clear
11:32 PM 60.8 °F 50.0 °F 68% 29.90 in 10.0 mi ESE 8.1 mph - N/A   Clear
11:53 PM 60.4 °F 49.6 °F 68% 29.90 in 10.0 mi SE 11.5 mph - N/A   Clear